This is the latest recevied weather packets stored in our database for station/object K8GLX. If no packets are shown the sender has not sent any weather packets the latest 10 day(s).
| Time | Temp. | Humidity | Pressure | Rain* | Wind** | Luminosity | Snow |
|---|---|---|---|---|---|---|---|
| 1777840334 | 16.11° C | 36% | 1011.7 hPa | 0 mm | - | 564 W/m² | - |
| 1777840028 | 16.67° C | 36% | 1011.5 hPa | 0 mm | - | 565 W/m² | - |
| 1777839735 | 16.11° C | 37% | 1011.6 hPa | 0 mm | - | 395 W/m² | - |
| 1777839429 | 16.67° C | 36% | 1011.8 hPa | 0 mm | - | 603 W/m² | - |
| 1777839135 | 16.67° C | 37% | 1011.9 hPa | 0 mm | - | 591 W/m² | - |
| 1777838829 | 16.11° C | 36% | 1012.2 hPa | 0 mm | - | 620 W/m² | - |
| 1777838535 | 16.11° C | 37% | 1012 hPa | 0 mm | - | 553 W/m² | - |
| 1777838228 | 16.11° C | 37% | 1012.1 hPa | 0 mm | - | 478 W/m² | - |
| 1777837935 | 16.11° C | 38% | 1012 hPa | 0 mm | - | 251 W/m² | - |
| 1777837628 | 16.67° C | 38% | 1012.4 hPa | 0 mm | - | 634 W/m² | - |
| 1777837462 | 15.56° C | 40% | 1012.3 hPa | 0 mm | - | 576 W/m² | - |
| 1777837028 | 15.56° C | 40% | 1012.5 hPa | 0 mm | - | 462 W/m² | - |
| 1777836735 | 15.56° C | 42% | 1012.6 hPa | 0 mm | - | 361 W/m² | - |
| 1777836433 | 15.56° C | 40% | 1012.8 hPa | 0 mm | - | 274 W/m² | - |
| 1777836368 | 15.56° C | 41% | 1012.9 hPa | 0 mm | - | 501 W/m² | - |
| 1777835948 | 16.11° C | 42% | 1012.8 hPa | 0 mm | - | 301 W/m² | - |
| 1777835662 | 15.56° C | 41% | 1013 hPa | 0 mm | - | 723 W/m² | - |
| 1777835229 | 15.56° C | 40% | 1013.2 hPa | 0 mm | - | 419 W/m² | - |
| 1777835062 | 15° C | 42% | 1013.1 hPa | 0 mm | - | 674 W/m² | - |
| 1777834629 | 15.56° C | 41% | 1013.1 hPa | 0 mm | - | 749 W/m² | - |
| 1777834461 | 15.56° C | 40% | 1013.2 hPa | 0 mm | - | 726 W/m² | - |
| 1777834139 | 15.56° C | 40% | 1013.3 hPa | 0 mm | - | 730 W/m² | - |
| 1777833861 | 15.56° C | 41% | 1013.3 hPa | 0 mm | - | 730 W/m² | - |
| 1777833428 | 16.11° C | 39% | 1013.3 hPa | 0 mm | - | 745 W/m² | - |
| 1777833134 | 15.56° C | 41% | 1013.3 hPa | 0 mm | - | 752 W/m² | - |
* Rain latest hour (hover to see other rain measurements)
** Current wind speed in m/s (hover to see current wind gust speed)